Time,TemperatureF,DewpointF,PressureIn,WindDirection,WindDirectionDegrees,WindSpeedMPH,WindSpeedGustMPH,Humidity,HourlyPrecipIn,Conditions,Clouds,dailyrainin,SolarRadiationWatts/m^2,SoftwareType,DateUTC
2013-07-27 00:02:00,62.6,62.0,29.80,NW,311,5.0,10.0,96,0.00,,,0.00,0,weatherlink.com 1.10,2013-07-27 04:02:00,
2013-07-27 00:17:00,62.5,61.0,29.80,NW,313,0.0,11.0,96,0.00,,,0.00,0,weatherlink.com 1.10,2013-07-27 04:17:00,
2013-07-27 00:32:00,62.4,61.0,29.80,NW,316,5.0,13.0,96,0.00,,,0.00,0,weatherlink.com 1.10,2013-07-27 04:32:00,
2013-07-27 00:47:00,62.3,61.0,29.81,WNW,291,4.0,10.0,96,0.00,,,0.00,0,weatherlink.com 1.10,2013-07-27 04:47:00,
2013-07-27 01:03:00,62.3,61.0,29.81,West,265,2.0,8.0,96,0.01,,,0.01,0,weatherlink.com 1.10,2013-07-27 05:03:00,
2013-07-27 01:18:00,62.0,61.0,29.80,WSW,256,3.0,8.0,96,0.01,,,0.01,0,weatherlink.com 1.10,2013-07-27 05:18:00,
2013-07-27 01:33:00,61.9,61.0,29.80,WNW,289,8.0,11.0,96,0.01,,,0.01,0,weatherlink.com 1.10,2013-07-27 05:33:00,
2013-07-27 01:48:00,61.9,61.0,29.80,West,267,4.0,11.0,96,0.01,,,0.01,0,weatherlink.com 1.10,2013-07-27 05:48:00,
2013-07-27 02:03:00,61.7,61.0,29.81,WNW,295,3.0,8.0,96,0.00,,,0.01,0,weatherlink.com 1.10,2013-07-27 06:03:00,
2013-07-27 02:18:00,61.5,60.0,29.82,NW,324,3.0,11.0,96,0.00,,,0.01,0,weatherlink.com 1.10,2013-07-27 06:18:00,
2013-07-27 02:33:00,61.3,60.0,29.82,West,279,2.0,11.0,96,0.00,,,0.01,0,weatherlink.com 1.10,2013-07-27 06:33:00,
2013-07-27 02:48:00,61.2,60.0,29.82,WNW,287,2.0,11.0,96,0.00,,,0.01,0,weatherlink.com 1.10,2013-07-27 06:48:00,
2013-07-27 03:03:00,61.1,60.0,29.82,WNW,289,1.0,12.0,96,0.00,,,0.01,0,weatherlink.com 1.10,2013-07-27 07:03:00,
2013-07-27 03:18:00,61.0,60.0,29.83,WSW,258,10.0,10.0,96,0.00,,,0.01,0,weatherlink.com 1.10,2013-07-27 07:18:00,
2013-07-27 03:33:00,60.9,60.0,29.83,WNW,285,9.0,9.0,97,0.00,,,0.01,0,weatherlink.com 1.10,2013-07-27 07:33:00,
2013-07-27 03:48:00,60.9,60.0,29.83,North,10,2.0,10.0,97,0.00,,,0.01,0,weatherlink.com 1.10,2013-07-27 07:48:00,
2013-07-27 04:03:00,61.0,60.0,29.84,West,265,1.0,7.0,97,0.00,,,0.01,0,weatherlink.com 1.10,2013-07-27 08:03:00,
2013-07-27 04:18:00,61.1,60.0,29.85,West,261,1.0,7.0,97,0.01,,,0.02,0,weatherlink.com 1.10,2013-07-27 08:18:00,
2013-07-27 04:33:00,61.2,60.0,29.86,NW,310,1.0,7.0,97,0.01,,,0.02,0,weatherlink.com 1.10,2013-07-27 08:33:00,
2013-07-27 04:48:00,61.3,61.0,29.86,West,272,5.0,7.0,97,0.01,,,0.02,0,weatherlink.com 1.10,2013-07-27 08:48:00,
2013-07-27 05:03:00,61.4,61.0,29.86,WNW,289,0.0,5.0,97,0.01,,,0.02,0,weatherlink.com 1.10,2013-07-27 09:03:00,
2013-07-27 05:18:00,61.4,61.0,29.87,WNW,288,2.0,4.0,97,0.00,,,0.02,0,weatherlink.com 1.10,2013-07-27 09:18:00,
2013-07-27 05:33:00,61.4,61.0,29.87,West,273,0.0,3.0,97,0.00,,,0.02,5,weatherlink.com 1.10,2013-07-27 09:33:00,
2013-07-27 05:48:00,61.5,61.0,29.88,WNW,296,1.0,3.0,97,0.00,,,0.02,5,weatherlink.com 1.10,2013-07-27 09:48:00,
2013-07-27 06:03:00,61.6,61.0,29.89,WNW,292,0.0,3.0,97,0.00,,,0.02,7,weatherlink.com 1.10,2013-07-27 10:03:00,
2013-07-27 06:18:00,61.7,61.0,29.89,West,277,0.0,2.0,97,0.00,,,0.02,7,weatherlink.com 1.10,2013-07-27 10:18:00,
2013-07-27 06:33:00,61.9,61.0,29.89,WSW,246,0.0,4.0,97,0.00,,,0.02,32,weatherlink.com 1.10,2013-07-27 10:33:00,
2013-07-27 06:48:00,62.3,62.0,29.90,SW,236,4.0,4.0,97,0.00,,,0.02,28,weatherlink.com 1.10,2013-07-27 10:48:00,
2013-07-27 07:03:00,62.7,62.0,29.90,West,272,1.0,6.0,97,0.00,,,0.02,54,weatherlink.com 1.10,2013-07-27 11:03:00,
2013-07-27 07:18:00,62.8,62.0,29.91,WSW,237,0.0,5.0,96,0.00,,,0.02,69,weatherlink.com 1.10,2013-07-27 11:18:00,
2013-07-27 07:33:00,63.1,62.0,29.91,WSW,241,3.0,6.0,96,0.00,,,0.02,72,weatherlink.com 1.10,2013-07-27 11:33:00,
2013-07-27 07:48:00,63.8,62.0,29.92,WNW,282,3.0,7.0,94,0.00,,,0.02,123,weatherlink.com 1.10,2013-07-27 11:48:00,
2013-07-27 08:03:00,64.3,63.0,29.92,SSW,208,0.0,6.0,94,0.00,,,0.02,105,weatherlink.com 1.10,2013-07-27 12:03:00,
2013-07-27 08:18:00,65.2,63.0,29.92,WNW,292,3.0,3.0,93,0.00,,,0.02,218,weatherlink.com 1.10,2013-07-27 12:18:00,
2013-07-27 08:33:00,67.3,65.0,29.92,West,279,2.0,6.0,91,0.00,,,0.02,276,weatherlink.com 1.10,2013-07-27 12:33:00,
2013-07-27 08:48:00,67.6,64.0,29.92,West,270,1.0,11.0,88,0.00,,,0.02,239,weatherlink.com 1.10,2013-07-27 12:48:00,
2013-07-27 09:04:00,70.1,65.0,29.92,North,5,1.0,7.0,85,0.00,,,0.02,622,weatherlink.com 1.10,2013-07-27 13:04:00,
2013-07-27 09:19:00,69.5,64.0,29.92,NNW,332,5.0,9.0,82,0.00,,,0.02,167,weatherlink.com 1.10,2013-07-27 13:19:00,
2013-07-27 09:34:00,69.9,64.0,29.93,WNW,297,4.0,12.0,82,0.00,,,0.02,823,weatherlink.com 1.10,2013-07-27 13:34:00,
2013-07-27 09:49:00,70.8,64.0,29.93,WNW,294,2.0,10.0,80,0.00,,,0.02,262,weatherlink.com 1.10,2013-07-27 13:49:00,
2013-07-27 10:04:00,70.7,64.0,29.94,NW,310,5.0,12.0,79,0.00,,,0.02,316,weatherlink.com 1.10,2013-07-27 14:04:00,
2013-07-27 10:19:00,71.9,65.0,29.94,NW,309,7.0,12.0,78,0.00,,,0.02,385,weatherlink.com 1.10,2013-07-27 14:19:00,
2013-07-27 10:34:00,71.9,64.0,29.94,WNW,294,5.0,15.0,76,0.00,,,0.02,364,weatherlink.com 1.10,2013-07-27 14:34:00,
2013-07-27 10:49:00,72.6,64.0,29.94,WNW,284,5.0,9.0,74,0.00,,,0.02,443,weatherlink.com 1.10,2013-07-27 14:49:00,
2013-07-27 11:04:00,72.3,64.0,29.94,West,274,2.0,11.0,76,0.00,,,0.02,476,weatherlink.com 1.10,2013-07-27 15:04:00,
2013-07-27 11:19:00,72.5,64.0,29.95,WNW,292,5.0,10.0,75,0.00,,,0.02,429,weatherlink.com 1.10,2013-07-27 15:19:00,
2013-07-27 11:34:00,73.4,65.0,29.95,NW,309,4.0,10.0,74,0.00,,,0.02,397,weatherlink.com 1.10,2013-07-27 15:34:00,
2013-07-27 11:49:00,73.6,64.0,29.95,West,265,1.0,10.0,73,0.00,,,0.02,343,weatherlink.com 1.10,2013-07-27 15:49:00,
2013-07-27 12:04:00,75.1,65.0,29.95,West,275,1.0,9.0,71,0.00,,,0.02,279,weatherlink.com 1.10,2013-07-27 16:04:00,
2013-07-27 12:19:00,76.3,66.0,29.95,West,273,3.0,9.0,70,0.00,,,0.02,304,weatherlink.com 1.10,2013-07-27 16:19:00,
2013-07-27 12:34:00,76.7,65.0,29.94,WSW,244,9.0,11.0,67,0.00,,,0.02,925,weatherlink.com 1.10,2013-07-27 16:34:00,
2013-07-27 12:49:00,77.7,65.0,29.94,NW,312,4.0,11.0,65,0.00,,,0.02,993,weatherlink.com 1.10,2013-07-27 16:49:00,
2013-07-27 13:04:00,78.6,65.0,29.95,NNW,342,4.0,10.0,63,0.00,,,0.02,900,weatherlink.com 1.10,2013-07-27 17:04:00,
2013-07-27 13:19:00,79.9,66.0,29.94,North,360,3.0,9.0,62,0.00,,,0.02,884,weatherlink.com 1.10,2013-07-27 17:19:00,
2013-07-27 13:34:00,79.9,65.0,29.94,WSW,238,4.0,14.0,61,0.00,,,0.02,758,weatherlink.com 1.10,2013-07-27 17:34:00,
2013-07-27 13:49:00,79.2,65.0,29.95,WSW,248,4.0,12.0,63,0.00,,,0.02,1095,weatherlink.com 1.10,2013-07-27 17:49:00,
2013-07-27 14:04:00,79.8,66.0,29.94,West,263,0.0,10.0,62,0.00,,,0.02,262,weatherlink.com 1.10,2013-07-27 18:04:00,
2013-07-27 14:19:00,81.0,66.0,29.94,South,169,2.0,11.0,61,0.00,,,0.02,830,weatherlink.com 1.10,2013-07-27 18:19:00,
2013-07-27 14:34:00,81.6,65.0,29.95,SSW,192,1.0,9.0,58,0.00,,,0.02,773,weatherlink.com 1.10,2013-07-27 18:34:00,
2013-07-27 14:49:00,81.4,67.0,29.95,WSW,246,6.0,11.0,61,0.00,,,0.02,749,weatherlink.com 1.10,2013-07-27 18:49:00,
2013-07-27 15:04:00,81.9,67.0,29.95,West,259,1.0,6.0,61,0.00,,,0.02,700,weatherlink.com 1.10,2013-07-27 19:04:00,
2013-07-27 15:19:00,81.2,66.0,29.95,WNW,302,3.0,7.0,61,0.00,,,0.02,664,weatherlink.com 1.10,2013-07-27 19:19:00,
2013-07-27 15:34:00,81.4,67.0,29.95,North,5,1.0,7.0,62,0.00,,,0.02,638,weatherlink.com 1.10,2013-07-27 19:34:00,
2013-07-27 15:49:00,81.3,66.0,29.95,WSW,252,5.0,6.0,61,0.00,,,0.02,594,weatherlink.com 1.10,2013-07-27 19:49:00,
2013-07-27 16:05:00,81.1,67.0,29.95,West,268,2.0,8.0,62,0.00,,,0.02,548,weatherlink.com 1.10,2013-07-27 20:05:00,
2013-07-27 16:20:00,80.3,67.0,29.95,SSE,165,0.0,8.0,64,0.00,,,0.02,510,weatherlink.com 1.10,2013-07-27 20:20:00,
2013-07-27 16:35:00,80.6,67.0,29.95,West,272,2.0,9.0,63,0.00,,,0.02,466,weatherlink.com 1.10,2013-07-27 20:35:00,
2013-07-27 16:50:00,80.4,66.0,29.95,West,277,3.0,9.0,62,0.00,,,0.02,429,weatherlink.com 1.10,2013-07-27 20:50:00,
2013-07-27 17:05:00,79.5,66.0,29.95,SW,223,0.0,6.0,64,0.00,,,0.02,383,weatherlink.com 1.10,2013-07-27 21:05:00,
2013-07-27 17:20:00,80.9,67.0,29.95,NNW,340,2.0,4.0,62,0.00,,,0.02,338,weatherlink.com 1.10,2013-07-27 21:20:00,
2013-07-27 17:35:00,80.2,67.0,29.95,West,281,0.0,6.0,65,0.00,,,0.02,292,weatherlink.com 1.10,2013-07-27 21:35:00,
2013-07-27 17:50:00,78.9,66.0,29.94,SW,231,0.0,7.0,65,0.00,,,0.02,225,weatherlink.com 1.10,2013-07-27 21:50:00,
2013-07-27 18:05:00,77.8,66.0,29.94,South,170,2.0,7.0,67,0.00,,,0.02,186,weatherlink.com 1.10,2013-07-27 22:05:00,
2013-07-27 18:20:00,77.1,65.0,29.94,SE,146,1.0,7.0,67,0.00,,,0.02,135,weatherlink.com 1.10,2013-07-27 22:20:00,
2013-07-27 18:35:00,76.7,65.0,29.95,West,269,0.0,5.0,68,0.00,,,0.02,51,weatherlink.com 1.10,2013-07-27 22:35:00,
2013-07-27 18:50:00,75.9,65.0,29.95,SW,229,0.0,3.0,70,0.00,,,0.02,58,weatherlink.com 1.10,2013-07-27 22:50:00,
2013-07-27 19:05:00,74.8,65.0,29.96,NW,309,1.0,3.0,71,0.00,,,0.02,42,weatherlink.com 1.10,2013-07-27 23:05:00,
2013-07-27 19:20:00,72.8,65.0,29.96,NW,305,1.0,1.0,77,0.00,,,0.02,26,weatherlink.com 1.10,2013-07-27 23:20:00,
2013-07-27 19:35:00,71.7,64.0,29.96,WNW,284,0.0,2.0,76,0.00,,,0.02,14,weatherlink.com 1.10,2013-07-27 23:35:00,
2013-07-27 19:50:00,70.9,64.0,29.96,West,269,0.0,2.0,80,0.00,,,0.02,11,weatherlink.com 1.10,2013-07-27 23:50:00,
2013-07-27 20:05:00,69.3,64.0,29.96,West,269,0.0,1.0,83,0.00,,,0.02,0,weatherlink.com 1.10,2013-07-28 00:05:00,
2013-07-27 20:20:00,67.9,64.0,29.96,West,269,0.0,0.0,86,0.00,,,0.02,0,weatherlink.com 1.10,2013-07-28 00:20:00,
2013-07-27 20:35:00,66.8,63.0,29.97,West,269,0.0,0.0,88,0.00,,,0.02,0,weatherlink.com 1.10,2013-07-28 00:35:00,
2013-07-27 21:05:00,65.0,63.0,29.99,West,269,0.0,0.0,92,0.00,,,0.02,0,weatherlink.com 1.10,2013-07-28 01:05:00,
2013-07-27 21:20:00,64.3,62.0,29.99,West,269,0.0,0.0,93,0.00,,,0.02,0,weatherlink.com 1.10,2013-07-28 01:20:00,
2013-07-27 21:35:00,63.8,62.0,29.99,West,269,0.0,0.0,94,0.00,,,0.02,0,weatherlink.com 1.10,2013-07-28 01:35:00,
2013-07-27 21:50:00,63.3,62.0,30.00,West,269,0.0,0.0,94,0.00,,,0.02,0,weatherlink.com 1.10,2013-07-28 01:50:00,
2013-07-27 22:05:00,63.0,61.0,30.00,WNW,302,2.0,3.0,94,0.00,,,0.02,0,weatherlink.com 1.10,2013-07-28 02:05:00,
2013-07-27 22:20:00,63.1,61.0,30.01,NW,304,1.0,2.0,93,0.00,,,0.02,0,weatherlink.com 1.10,2013-07-28 02:20:00,
2013-07-27 22:35:00,63.0,61.0,30.00,NW,320,1.0,3.0,94,0.00,,,0.02,0,weatherlink.com 1.10,2013-07-28 02:35:00,
2013-07-27 22:50:00,62.8,61.0,30.00,NW,320,0.0,1.0,94,0.00,,,0.02,0,weatherlink.com 1.10,2013-07-28 02:50:00,
2013-07-27 23:05:00,62.5,61.0,30.00,NW,320,0.0,0.0,95,0.00,,,0.02,0,weatherlink.com 1.10,2013-07-28 03:05:00,
2013-07-27 23:20:00,62.1,61.0,30.00,NW,320,0.0,0.0,95,0.00,,,0.02,0,weatherlink.com 1.10,2013-07-28 03:20:00,
2013-07-27 23:35:00,61.6,60.0,30.01,NW,320,0.0,0.0,95,0.00,,,0.02,0,weatherlink.com 1.10,2013-07-28 03:35:00,
2013-07-27 23:50:00,61.3,60.0,30.00,NW,320,0.0,0.0,95,0.00,,,0.02,0,weatherlink.com 1.10,2013-07-28 03:50:00,